Location: Hodgeman County Ambulance
(38.0844°N, 99.8949°W)
Time: 00:32:59
(UTC+00:00)

Aureole 3 - Pass Details

Date: 27 October 2020
Orbit: 382 x 1231 km, 82.5° (Epoch: 04 December)

Event Time Altitude Azimuth Distance (km) Brightness Sun altitude
Rises 11:59:22 0° 351° (N) 2,764 6.7 -12.7°
Reaches altitude 10° 12:01:20 10° 350° (N) 1,969 6.0 -12.3°
Maximum altitude 12:05:42 81° 264° (W) 733 3.8 -11.4°
Drops below altitude 10° 12:11:18 10° 178° (S) 2,501 6.8 -10.4°
Sets 12:14:02 0° 177° (S) 3,578 7.6 -9.8°
